Location: Feydey
(46.3431°N, 7.0106°E)
Time: 19:36:20
(UTC+00:00)

Cosmos 1328 - Pass Details

Date: 18 October 2021
Orbit: 529 x 552 km, 82.5° (Epoch: 03 December)

Event Time Altitude Azimuth Distance (km) Brightness Sun altitude
Rises 19:39:04 0° 329° (NNW) 2,731 8.1 -31.3°
Reaches altitude 10° 19:42:40 10° 295° (WNW) 1,833 7.3 -31.9°
Maximum altitude 19:43:56 11° 277° (W) 1,749 7.2 -32.1°
Drops below altitude 10° 19:45:12 10° 259° (WSW) 1,830 7.1 -32.3°
Sets 19:48:48 0° 224° (SW) 2,718 7.6 -32.9°
